RH
90 90 87 86 85 83 71 69 53 95 90 74 73 98 68 49 51 38 34 49 59 70 71 69 60 68 74 86 88 98 90 98 90 70 82 85 79 76 78 94 92 70 68 94
90 89 92 90 87 84 80 62 64 86 90 88 73 50 37 38 45 54 60 69 71 72 70 80 53 54 46 64 84 96 95 97 93 93 95 92 94 91 92 92 87 94 90 96
92 96 95 95 91 88 78 61 79 99 91 72 72 75 70 59 45 56 67 78 56 75 76 66 85 82 69 66 77 83 92 93 94 94 92 89 92 92 89 92 94 91 92 94
94 96 94 97 94 88 73 66 77 68 80 61 70 69 70 71 70 58 70 68 73 79 88 78 81 63 55 52 61 82 91 91 91 92 88 88 89 91 94 95 94 92 91 89
96 97 84 75 82 76 67 72 73 66 69 62 68 72 72 80 71 72 74 86 77 79 83 88 90 91 83 63 60 89 92 94 87 93 92 91 95 93 91 92 92 94 92 93
94 94 66 52 48 68 67 78 71 47 68 69 57 75 76 75 76 66 77 90 87 89 88 91 87 90 90 87 64 89 92 91 91 90 91 93 88 97 93 94 93 93 92 92
62 31 28 28 49 56 76 100 79 63 69 62 66 73 74 79 80 90 76 78 81 78 78 84 91 93 91 92 57 60 92 93 91 91 88 88 92 89 89 92 94 94 93 92
42 29 12 14 10 51 63 90 75 68 73 68 50 66 65 65 68 79 82 75 71 82 88 83 68 66 74 67 33 44 57 90 91 90 89 92 88 85 90 92 93 90 85 65
50 40 19 7 12 6 8 20 65 70 67 68 75 76 62 69 68 54 67 58 60 62 83 60 56 61 68 56 48 28 42 56 75 80 85 91 85 66 57 77 76 73 64 66
47 20 26 25 7 6 8 22 32 63 72 68 81 64 71 70 64 78 64 62 55 48 53 59 63 52 59 50 57 72 49 58 69 60 70 79 72 55 49 79 85 62 61 68
12 24 24 12 8 11 9 19 20 58 70 63 78 72 75 68 61 62 54 58 42 52 55 48 47 50 55 49 67 75 59 78 55 46 49 68 66 43 57 73 61 56 53 53
29 21 12 8 8 8 11 24 19 34 62 58 42 52 56 70 76 87 58 61 66 67 60 55 38 44 37 62 50 45 45 77 76 67 59 76 69 74 68 71 66 50 53 48
65 68 57 20 12 10 10 14 15 43 65 77 52 45 43 71 75 86 85 49 74 62 82 62 51 59 52 55 76 66 71 76 64 68 65 52 58 55 58 55 63 51 46 47
65 68 69 73 64 22 13 27 20 40 28 38 53 41 54 48 67 88 98 82 63 56 50 63 61 59 50 62 74 72 75 71 78 58 54 60 67 56 55 52 44 46 46 47
44 49 22 18 78 73 32 27 54 27 64 43 40 45 45 42 53 58 64 68 66 60 65 69 74 56 62 53 71 74 88 90 85 84 69 66 64 64 60 66 66 61 63 62
75 60 25 17 81 56 39 41 49 44 24 44 41 43 37 41 53 42 44 44 53 69 70 79 81 89 80 72 79 82 86 90 92 85 81 77 76 80 75 80 82 77 79 78
72 69 27 21 18 34 41 46 45 24 26 43 46 41 38 46 47 47 47 49 69 70 75 75 69 69 69 76 84 88 82 80 85 90 92 91 82 82 78 84 78 76 82 87
63 62 40 26 26 37 64 44 36 25 41 47 68 53 44 51 45 59 50 67 61 67 77 74 74 71 77 82 85 87 82 82 73 86 93 89 86 91 88 90 96 95 94 88
65 52 34 27 32 35 63 37 36 33 52 73 68 76 71 52 46 51 60 60 60 55 62 72 68 67 84 82 92 91 90 93 93 88 86 90 98 94 89 86 86 93 90 86
30 26 29 37 38 37 35 42 43 52 54 64 76 64 71 64 57 64 73 68 67 74 73 62 73 84 86 93 84 94 90 91 92 93 83 82 81 82 85 87 84 89 90 89
22 33 36 29 26 38 37 64 64 60 67 68 74 75 82 66 88 88 85 85 68 70 71 68 67 87 88 86 80 90 89 84 85 87 89 86 88 89 88 84 79 80 83 85
28 28 23 29 49 61 61 66 52 63 72 70 76 76 73 68 73 86 78 84 75 76 66 76 85 88 82 76 78 75 74 82 86 84 91 89 87 81 82 83 83 83 85 87
19 29 58 67 67 64 61 72 61 72 75 81 81 82 77 70 70 85 89 75 83 70 78 77 79 74 72 75 76 74 70 71 74 76 75 76 79 78 80 86 83 84 86 86
66 67 54 68 65 57 62 65 65 60 73 78 82 84 83 78 85 84 90 79 82 72 71 56 69 74 75 69 69 76 77 76 79 82 84 83 82 85 83 82 84 88 90 88
70 65 64 63 53 65 70 70 75 63 70 79 81 82 80 79 84 74 71 71 69 76 66 75 72 74 70 74 76 79 83 82 86 84 86 87 87 89 88 83 85 90 88 89
72 69 62 54 65 65 68 74 74 66 76 77 82 86 74 85 93 71 84 74 73 74 77 75 71 74 74 77 76 80 83 84 85 82 83 84 86 90 87 84 77 79 84 90
64 77 58 64 67 64 62 63 65 72 73 88 84 81 87 85 72 71 67 79 84 81 76 67 69 76 78 76 79 81 83 87 86 87 87 86 86 85 74 77 76 77 86 91
Wind_Speed
20 20 22 22 23 26 12 4 1 14 12 2 1 2 7 15 16 17 12 11 12 13 19 17 14 11 7 16 15 7 9 6 12 14 4 4 3 8 11 5 6 6 5 5
19 20 20 20 20 17 8 3 3 9 5 4 5 11 12 11 15 15 10 8 10 11 9 10 12 19 13 22 17 18 9 6 9 4 4 4 3 8 8 2 1 3 4 5
18 19 20 20 20 14 2 2 2 3 4 4 6 9 6 11 13 9 10 7 11 16 8 10 12 19 12 22 16 23 9 6 9 5 6 3 7 19 10 6 3 5 5 17
18 18 20 21 18 10 3 4 4 4 4 7 8 10 8 10 12 9 10 6 16 12 5 5 10 13 14 17 21 15 5 6 11 14 21 26 21 19 23 14 8 4 14 16
21 20 21 23 17 8 8 2 3 4 4 8 8 11 8 9 9 4 7 9 17 8 3 6 8 11 10 8 14 13 5 7 7 6 16 26 21 21 14 14 13 16 17 12
23 21 24 23 23 9 6 4 4 3 7 6 4 6 9 7 12 6 8 11 14 6 6 13 14 4 2 2 12 11 9 5 2 4 5 6 12 19 12 13 12 2 4 7
27 28 26 26 20 16 9 5 2 3 3 6 5 7 9 11 10 5 10 10 7 7 18 16 11 13 11 9 8 12 9 5 3 3 7 6 1 6 10 13 10 10 12 7
28 29 28 23 24 15 17 6 3 3 4 5 5 13 8 10 4 3 8 7 7 12 11 5 5 1 2 3 12 15 14 3 5 3 7 6 4 5 5 5 4 5 6 4
29 28 30 29 16 20 26 20 11 5 3 9 5 5 8 6 10 5 2 6 14 7 3 4 10 7 6 8 17 17 15 16 5 5 6 5 5 7 6 5 2 3 2 3
18 20 26 25 21 29 29 18 12 9 5 4 3 5 4 6 5 5 3 10 9 11 7 5 6 5 4 8 10 10 10 8 13 10 5 4 4 7 5 4 3 3 0 2
22 19 18 19 24 29 25 16 15 7 4 3 4 2 3 3 4 5 7 5 4 7 7 5 4 6 5 2 2 6 9 7 6 5 4 5 6 6 4 2 3 3 4 5
17 19 20 20 17 14 13 11 18 15 10 3 4 3 1 1 4 3 6 2 2 4 2 4 3 5 4 3 5 2 5 3 3 4 3 2 3 3 2 3 6 5 5 6
12 14 15 14 16 16 13 9 6 6 4 3 2 3 4 6 5 4 3 3 2 3 2 3 2 7 4 5 6 4 3 2 3 5 3 5 4 6 7 6 8 9 9 10
10 12 11 8 6 9 14 11 7 2 1 2 2 3 3 5 5 1 3 3 0 0 2 3 4 3 4 3 2 4 3 3 4 4 3 9 5 7 8 9 9 11 13 13
12 14 13 10 7 3 5 15 13 7 2 2 3 3 5 7 4 7 5 2 3 2 2 4 3 2 1 0 2 6 1 4 4 4 4 4 9 4 5 9 12 12 13 14
10 12 13 9 3 3 1 2 6 14 3 1 2 2 4 13 6 6 10 6 4 3 3 3 3 1 2 4 4 9 5 6 8 5 0 7 13 12 14 11 12 15 14 16
5 8 10 9 11 9 6 4 9 7 4 1 2 1 4 11 4 4 5 6 3 3 2 3 2 1 2 3 8 16 14 12 9 10 6 9 8 7 2 11 16 17 18 20
4 4 6 7 8 7 6 11 20 6 3 5 3 4 2 13 5 4 8 4 1 4 2 1 2 2 2 3 12 9 13 13 9 7 10 13 14 13 16 15 13 10 11 14
2 1 3 4 5 4 3 7 10 15 9 3 3 7 5 11 4 3 3 3 2 1 2 2 3 1 4 7 13 11 13 11 14 15 11 11 11 14 13 12 12 13 14 12
2 2 1 2 4 5 4 3 2 5 8 5 3 1 4 5 5 2 5 2 2 1 2 3 2 2 1 5 14 8 14 14 14 14 16 16 16 14 15 15 13 13 13 17
2 2 3 2 5 3 4 4 5 4 3 4 2 3 5 3 3 3 3 3 3 2 2 3 1 1 6 13 16 12 16 20 18 18 18 18 16 14 15 15 19 20 21 19
6 10 6 4 6 4 5 4 3 5 5 5 5 6 3 2 2 2 2 3 2 3 4 2 2 3 12 17 18 17 22 22 21 23 20 22 21 21 20 20 20 21 22 22
5 5 4 4 5 8 6 9 4 7 6 5 7 5 3 2 1 2 3 3 3 2 1 4 2 11 16 17 16 17 24 25 24 23 23 24 24 24 22 22 24 25 23 22
4 4 7 5 5 5 3 5 6 4 4 8 7 3 2 2 2 2 4 3 2 5 5 5 9 17 18 17 18 16 19 24 23 22 23 23 23 23 24 22 23 23 22 24
4 4 5 4 1 2 3 3 4 3 6 6 3 2 2 2 2 2 4 7 6 4 6 9 13 18 18 18 18 17 17 21 21 23 22 23 23 23 24 25 25 22 22 22
3 6 4 1 0 4 3 4 4 6 6 1 1 3 3 5 4 6 5 8 4 7 9 12 14 17 18 17 22 24 25 24 23 23 24 24 24 23 25 26 22 23 24 23
4 3 3 3 3 2 3 3 5 11 5 4 3 5 5 4 4 5 3 5 9 13 12 11 15 17 18 24 25 26 26 25 24 24 25 25 24 24 24 19 25 26 26 23
Wind_Direction
352 352 352 349 348 348 3 339 21 356 355 306 38 334 350 325 330 337 316 301 314 317 332 301 294 281 285 2 333 281 240 186 230 207 73 49 265 228 209 219 188 229 269 123
359 357 356 354 352 358 342 25 17 18 356 38 344 324 318 344 337 352 348 321 352 360 304 303 307 315 347 4 5 344 337 334 222 149 131 79 30 12 347 325 61 189 210 148
8 3 1 1 356 351 32 344 29 40 51 44 347 357 360 337 339 332 353 329 348 340 308 340 324 345 328 345 1 346 53 62 58 343 29 355 41 14 2 337 214 103 47 135
15 12 9 7 3 21 348 3 54 3 8 4 353 1 3 343 356 355 353 353 350 339 291 322 0 0 336 341 358 343 64 77 81 88 74 73 60 45 44 54 8 28 134 126
25 23 18 17 14 51 61 35 10 64 44 339 0 8 22 334 342 310 338 343 335 8 4 5 321 343 7 36 325 345 13 134 123 96 81 72 56 30 43 40 58 75 94 89
38 30 29 31 33 47 76 45 72 82 26 349 350 12 339 319 339 253 261 327 318 287 338 316 295 269 188 1 6 340 334 164 203 160 266 303 31 8 30 53 39 3 84 96
39 39 39 37 36 55 90 65 25 79 41 29 20 347 320 298 309 273 307 313 322 352 322 294 247 244 236 258 20 20 340 329 7 74 318 50 75 57 74 75 43 61 82 74
45 44 41 45 41 58 83 69 47 102 83 334 2 346 334 305 311 271 270 290 309 318 305 312 331 67 24 330 3 14 358 299 63 85 58 151 130 41 1 349 51 29 79 52
49 50 48 48 49 62 71 54 67 79 110 17 315 318 342 343 341 326 261 315 319 309 276 3 20 25 320 341 337 1 1 26 62 34 54 51 33 20 353 302 82 148 74 27
50 53 51 49 58 66 72 57 66 78 97 41 323 16 322 317 295 280 287 341 340 334 12 46 20 41 323 10 6 341 346 4 38 43 87 93 15 338 332 285 44 163 281 310
59 60 59 61 58 66 76 57 60 85 96 107 180 179 347 330 334 343 340 295 22 358 40 27 22 30 29 342 47 346 5 341 18 358 61 49 8 301 329 354 246 249 261 288
59 58 58 57 53 52 73 72 72 79 71 106 189 191 88 237 265 293 343 60 357 9 336 42 49 34 22 276 34 16 16 16 338 17 24 336 306 275 269 251 282 286 284 292
60 52 45 40 45 49 64 98 103 71 113 134 142 8 0 10 328 228 321 84 351 61 297 28 60 72 318 17 25 309 118 161 307 309 171 268 263 243 240 248 251 276 276 280
45 33 14 337 357 44 57 72 62 60 107 86 106 22 39 2 10 296 227 317 318 9 330 52 47 70 352 44 8 9 7 283 337 260 260 295 261 258 275 284 280 276 277 277
20 15 11 10 244 305 40 65 49 44 359 83 120 136 30 5 11 39 56 40 299 4 52 44 58 69 285 77 251 26 348 340 336 309 324 260 284 300 258 267 269 272 275 278
4 3 9 29 185 337 351 196 25 14 54 182 167 98 20 9 10 25 29 24 34 60 50 78 87 158 290 17 10 27 353 238 245 266 336 254 272 289 267 261 257 259 260 258
345 8 29 53 62 66 57 71 319 1 46 287 115 128 44 351 358 30 1 29 47 39 91 56 35 106 278 40 14 340 335 330 297 243 279 279 247 263 246 228 258 271 276 269
303 355 13 30 35 58 42 22 24 45 76 30 34 338 293 8 1 357 4 349 12 30 77 145 3 179 242 28 350 340 341 328 316 311 218 253 291 297 277 271 263 267 263 263
229 296 4 31 35 38 16 1 23 42 50 82 56 354 337 356 27 350 329 340 20 335 38 44 292 140 48 326 332 325 346 330 312 311 304 266 253 271 278 275 272 261 264 262
108 87 27 53 5 348 356 7 22 30 34 35 76 257 330 345 347 9 336 8 30 1 37 296 274 60 9 329 348 313 340 331 325 316 324 322 310 311 309 303 296 279 274 276
85 61 63 10 7 23 28 38 28 346 48 19 35 38 333 48 337 332 31 334 335 310 38 330 10 105 349 353 347 338 335 331 326 322 314 312 308 309 308 304 299 294 291 287
90 106 87 35 22 27 42 14 6 18 3 6 351 345 343 346 312 294 4 313 275 358 332 281 5 25 352 347 342 339 337 334 328 327 322 321 317 317 312 308 305 302 297 293
69 61 53 20 357 33 29 356 337 327 358 21 339 326 357 289 269 277 306 320 358 294 271 8 8 349 344 340 336 333 335 333 330 328 328 326 323 323 319 315 313 311 307 304
57 44 33 39 22 30 350 314 308 330 323 333 327 296 321 335 307 321 310 16 279 359 341 355 338 339 333 335 332 331 332 333 333 330 328 325 325 322 320 319 318 319 315 314
67 48 59 65 57 247 296 294 300 347 318 329 310 257 277 323 309 346 327 351 353 11 337 319 326 328 329 330 330 329 326 332 328 328 327 327 326 323 319 321 318 315 318 316
67 49 92 87 233 10 350 340 333 3 334 291 235 303 341 36 336 1 19 339 316 327 321 320 320 322 324 324 325 323 326 326 323 325 327 325 325 322 320 320 324 323 318 312
59 63 27 47 70 28 356 336 339 336 323 10 333 25 0 285 344 349 359 342 316 312 313 313 314 316 318 319 319 322 325 323 322 325 325 324 321 326 329 329 330 327 322 325